Find Starlink 32868

NORAD ID: 62854 Int'l Des: 2025-022 Owner: SPXS Country: US Constellation: starlink operational
LEOCIRCULAR

リアルタイム位置

3D地球を読み込み中...

Starlink 32868について

説明を読み込み中...

次回通過

Passes for default location (London). Set your location on the main map for personalized predictions.

高度履歴

Loading altitude history...

軌道要素

1 62854U 25022A 26125.54186737 .00040755 00000-0 12104-2 0 9994
2 62854 53.1605 224.8894 0001026 100.2611 259.8508 15.34411309 71426
Epoch: May 5, 2026 • Age: 9 hours

現在のステータス

高度 462.7 km
速度 7.64 km/s
衛星直下点 14.75°N, 33.59°E
打ち上げ日 Feb 2, 2025
運用期間 1.2 years
タイプ internet

技術仕様

分類 Payload
質量 730.00 kg
乾燥質量 700.00 kg
総質量 730.00 kg
長さ 0.30 m
直径 4.10 m
スパン 29.00 m
形状 Box + pan
製造者 SPXS
バスタイプ Starlink V2M
フェーズステータス In Orbit
所有者/国 SPXS/US

Most Searched